CAPE
0 0 0 0 0 0 0 0 0 0 0 0 0 0 0 0 0 0 0 0 39 2555 2270 620 332 187 533 381 784 821 463 340 349 424 596 459 469 235 339 296 457 497 169 265 1000
0 0 0 0 0 0 0 0 0 0 0 0 0 0 0 0 0 0 0 0 2006 2283 28 13 0 45 31 198 561 634 482 355 513 526 612 596 570 468 517 417 661 795 592 687 857
0 0 0 0 0 0 0 0 0 0 0 0 0 0 0 0 0 0 210 0 837 1593 2 4 0 9 46 27 328 336 360 441 481 588 594 669 654 637 733 557 733 1016 734 541 609
0 0 0 0 0 0 0 0 0 0 0 0 0 0 0 0 0 0 166 167 1744 165 32 20 28 139 92 63 35 215 91 364 710 718 703 740 720 784 811 829 533 894 589 347 311
0 0 0 0 0 0 0 0 0 0 0 0 0 0 0 0 0 0 0 462 67 47 56 30 49 130 145 46 46 138 160 393 783 744 755 747 734 918 799 616 745 672 321 140 164
0 0 0 0 0 0 0 0 0 0 0 0 0 0 0 0 0 0 0 26 0 21 63 46 45 104 93 65 60 67 391 710 819 802 831 826 886 924 904 807 765 496 262 197 357
0 0 0 0 0 0 0 0 0 0 0 0 0 0 0 0 0 0 0 0 0 0 30 39 50 49 47 79 61 275 566 746 842 869 884 835 1024 1010 1064 1011 827 525 458 425 539
0 0 0 0 0 0 0 0 0 0 0 0 0 0 0 0 0 0 0 0 0 0 0 23 36 4 2 70 124 484 473 459 621 672 750 809 643 1088 1117 1215 960 566 526 607 730
0 0 0 0 0 0 0 0 0 0 0 0 0 0 0 0 0 0 0 0 0 0 0 11 16 1 0 75 191 413 499 340 338 249 471 565 453 803 1056 1227 1237 712 533 675 913
0 0 0 0 0 0 0 0 0 0 0 0 0 0 0 0 0 0 0 0 0 0 0 0 5 17 24 105 334 346 380 151 58 21 43 395 427 769 877 1240 1305 1091 758 622 708
0 0 0 0 0 0 0 0 0 0 0 0 0 0 0 0 0 0 0 0 0 0 0 0 0 28 15 21 159 205 271 171 55 0 0 81 170 409 861 1027 1199 1299 1184 821 684
0 0 0 0 0 0 0 0 0 0 0 0 0 0 0 0 0 0 0 0 0 0 0 0 0 0 7 3 28 121 254 199 81 15 0 0 48 228 732 917 910 1002 1144 1187 991
0 0 0 0 0 0 0 0 0 0 0 0 0 0 0 0 0 0 0 0 0 0 0 0 0 0 0 1 1 139 206 241 77 4 4 6 60 463 463 818 923 865 878 926 1054
0 0 0 0 0 0 0 0 0 0 0 0 0 0 0 0 0 0 0 0 0 0 0 0 0 0 0 0 0 94 136 77 112 0 20 0 1 38 387 640 801 929 897 855 892
0 0 0 0 0 0 0 0 0 0 0 0 0 0 0 0 0 0 0 0 0 0 0 0 0 0 0 0 1 21 22 102 79 0 0 0 0 3 0 0 19 878 663 797 874
0 0 0 0 0 0 0 0 0 0 0 0 0 0 0 0 0 0 0 0 0 0 0 0 0 0 0 0 0 1 17 99 51 0 0 1 0 0 13 0 0 109 164 578 897
0 0 0 0 0 0 0 0 0 0 0 0 0 0 0 0 0 0 0 0 0 0 0 0 0 0 0 0 0 0 0 0 0 0 5 0 0 0 0 0 11 323 483 670 981
0 0 0 0 0 0 0 0 0 0 0 0 0 0 0 0 0 0 0 0 0 0 0 0 0 0 0 0 0 0 0 0 0 21 38 0 0 0 0 0 432 716 858 893 1154
0 0 0 0 0 0 0 0 0 0 0 0 0 0 0 0 0 0 0 0 0 0 0 0 0 0 0 0 0 0 0 0 0 0 0 0 0 0 120 462 768 847 1213 1316 1404
0 0 0 0 0 0 0 0 0 0 0 0 0 0 0 0 0 0 0 0 0 0 0 0 0 0 0 0 0 0 0 0 0 0 0 0 0 13 84 460 491 834 892 1112 1430
0 0 0 0 0 0 0 0 0 0 0 0 0 0 0 0 0 0 0 0 0 0 0 0 0 0 0 0 0 0 0 0 0 0 0 0 4 0 369 488 521 578 721 834 722
0 0 0 0 0 0 0 0 0 0 0 0 0 0 0 0 0 0 0 0 0 0 0 0 0 0 0 0 0 0 0 0 0 0 0 0 4 324 622 460 451 591 553 569 576
0 0 0 0 0 0 0 0 0 0 0 0 0 0 0 2 4 0 0 0 0 0 0 0 0 0 0 0 0 0 0 0 0 0 0 0 20 566 788 1318 1556 1237 992 858 804
0 0 0 0 0 0 0 0 0 0 0 0 0 0 63 155 160 0 0 0 0 0 0 0 0 23 54 26 19 0 0 0 0 7 5 0 31 935 1170 1715 1873 1983 1962 1915 1519
0 0 0 0 0 0 0 0 0 0 0 0 0 0 0 156 114 7 0 0 0 0 0 0 1 4 12 11 0 10 0 0 0 0 3 13 10 1242 1760 1984 2140 2226 2331 2714 2868
0 0 0 0 0 0 0 0 0 0 0 0 0 0 0 197 354 54 0 14 0 0 0 0 27 58 61 40 50 91 6 0 0 0 151 105 643 1483 2042 1848 1631 1545 1703 1855 1862
0 0 0 0 0 0 0 0 0 0 0 0 3 0 0 110 67 26 36 0 0 0 0 0 33 46 111 26 8 118 194 431 508 620 419 225 1500 1811 1895 1637 1514 1394 1233 1212 1108
CIN
0 0 0 0 0 0 0 0 0 0 0 0 0 0 0 0 0 0 0 0 -432 -422 -407 -213 -226 -158 -142 -69 -67 -36 -1 -1 -1 -1 -9 -40 -40 -63 -67 -63 -44 -47 -81 -81 -63
0 0 0 0 0 0 0 0 0 0 0 0 0 0 0 0 0 0 0 0 -472 -449 -141 -265 0 -208 -129 -44 -30 -4 0 0 -3 -1 -9 -32 -31 -55 -58 -66 -55 -49 -62 -83 -71
0 0 0 0 0 0 0 0 0 0 0 0 0 0 0 0 0 0 -809 0 -664 -457 -310 -93 0 -202 -109 -124 -30 -16 0 -6 -6 -12 -16 -30 -34 -47 -38 -36 -42 -50 -80 -95 -65
0 0 0 0 0 0 0 0 0 0 0 0 0 0 0 0 0 0 -953 -947 -500 -330 -279 -300 -219 -75 -62 -85 -119 -25 -56 -12 -11 -28 -22 -22 -33 -38 -39 -34 -63 -73 -112 -111 -79
0 0 0 0 0 0 0 0 0 0 0 0 0 0 0 0 0 0 0 -693 -515 -345 -266 -279 -209 -104 -42 -118 -108 -61 -28 -12 -18 -19 -14 -40 -37 -24 -46 -77 -89 -120 -189 -172 -111
0 0 0 0 0 0 0 0 0 0 0 0 0 0 0 0 0 0 0 -647 0 -340 -276 -265 -218 -151 -107 -105 -95 -88 -16 -11 -15 -14 -25 -21 -32 -42 -68 -90 -115 -163 -188 -162 -99
0 0 0 0 0 0 0 0 0 0 0 0 0 0 0 0 0 0 0 0 0 -21 -286 -272 -240 -202 -164 -90 -100 -35 -5 -10 -14 -16 -20 -28 -41 -33 -64 -91 -103 -151 -150 -134 -95
0 0 0 0 0 0 0 0 0 0 0 0 0 0 0 0 0 0 0 0 0 0 0 -277 -231 -46 -11 -122 -60 -4 -3 0 -9 -18 -34 -25 -1 -45 -84 -82 -87 -122 -137 -128 -86
0 0 0 0 0 0 0 0 0 0 0 0 0 0 0 0 0 0 0 0 0 0 0 -291 -256 -49 -7 -103 -12 -3 0 0 -3 -33 -16 -21 -6 -57 -82 -62 -65 -108 -114 -126 -101
0 0 0 0 0 0 0 0 0 0 0 0 0 0 0 0 0 0 0 0 0 0 0 -97 -130 -221 -162 -79 -4 0 0 -21 -58 -122 -99 -18 -19 -46 -97 -60 -67 -87 -113 -128 -124
0 0 0 0 0 0 0 0 0 0 0 0 0 0 0 0 0 0 0 0 0 0 0 0 0 -178 -143 -169 -61 -2 0 -15 -70 -10 0 -28 -19 -17 -81 -79 -59 -55 -87 -87 -100
0 0 0 0 0 0 0 0 0 0 0 0 0 0 0 0 0 0 0 0 0 0 0 0 0 0 -158 -200 -140 -53 0 -6 -44 -161 0 0 -38 -18 -38 -72 -76 -73 -79 -80 -73
0 0 0 0 0 0 0 0 0 0 0 0 0 0 0 0 0 0 0 0 0 0 0 0 0 0 0 -103 -47 -43 -3 -2 -39 -165 -95 -73 -23 -19 -37 -55 -67 -79 -84 -77 -75
0 0 0 0 0 0 0 0 0 0 0 0 0 0 0 0 0 0 0 0 0 0 0 0 0 0 0 -13 0 -54 -13 -56 -49 -1 -58 -17 0 0 -6 -33 -74 -73 -82 -77 -79
0 0 0 0 0 0 0 0 0 0 0 0 0 0 0 0 0 0 0 0 0 0 0 0 0 0 0 0 -102 -116 -119 -59 -57 0 0 0 0 0 0 0 -1 -44 -65 -90 -81
0 0 0 0 0 0 0 0 0 0 0 0 0 0 0 0 0 0 0 0 0 0 0 0 0 0 0 0 0 -111 -155 -39 -36 0 -4 0 0 0 0 0 0 -23 -84 -88 -93
0 0 0 0 0 0 0 0 0 0 0 0 0 0 0 0 0 0 0 0 0 0 0 0 0 0 0 0 0 0 0 0 0 0 -47 0 0 0 0 0 -42 -69 -70 -90 -92
0 0 0 0 0 0 0 0 0 0 0 0 0 0 0 0 0 0 0 0 0 0 0 0 0 0 0 0 0 0 0 0 0 -14 -1 0 0 0 0 0 -43 -79 -86 -113 -88
0 0 0 0 0 0 0 0 0 0 0 0 0 0 0 0 0 0 0 0 0 0 0 0 0 0 0 0 0 0 0 0 0 0 0 0 0 0 -20 -10 -36 -60 -56 -67 -66
0 0 0 0 0 0 0 0 0 0 0 0 0 0 0 0 0 0 0 0 0 0 0 0 0 0 0 0 0 0 0 0 0 0 0 0 0 0 -13 -29 -33 -36 -42 -53 -56
0 0 0 0 0 0 0 0 0 0 0 0 0 0 0 0 0 0 0 0 0 0 0 0 0 0 0 0 0 0 0 0 0 0 0 0 0 0 -24 -56 -43 -56 -55 -45 -52
0 0 0 0 0 0 0 0 0 0 0 0 0 0 0 0 0 0 0 0 0 0 0 0 -2 -11 0 0 0 0 0 0 0 0 0 0 0 -27 -33 -72 -76 -80 -97 -83 -103
0 0 0 0 0 0 0 0 0 0 0 0 0 0 0 -17 -56 0 0 0 0 0 0 0 0 0 0 0 0 0 0 0 0 0 0 0 -1 -34 -28 -56 -71 -76 -70 -100 -90
0 0 0 0 0 0 0 0 0 0 0 0 0 0 -28 -7 -30 0 0 0 0 0 0 0 0 -1 0 -2 -7 0 0 0 0 0 0 0 -6 -6 -37 -43 -52 -73 -72 -62 -67
0 0 0 0 0 0 0 0 0 0 0 0 0 0 0 -4 -4 -10 0 0 0 0 0 0 0 -6 -17 -15 0 -14 0 0 0 0 0 -1 -2 -14 -58 -61 -67 -81 -77 -55 -37
0 0 0 0 0 0 0 0 0 0 0 0 0 0 0 -16 -13 -19 -1 -11 0 0 0 0 -4 -20 -25 -21 -8 -3 -12 0 0 0 -1 -1 0 -45 -76 -76 -79 -87 -81 -75 -77
0 0 0 0 0 0 0 0 0 0 0 0 -21 0 0 -66 -76 -87 -64 0 0 0 0 0 -12 -8 -7 -28 -47 0 0 -2 -4 -10 -2 0 -8 -30 -34 -49 -71 -89 -88 -92 -109
Wind_Speed
nan nan nan nan nan nan nan nan nan nan nan nan nan nan nan nan nan nan nan nan nan 15 7 3 11 13 13 11 14 16 20 6 7 11 14 19 19 20 20 23 12 9 10 16 17
nan nan nan nan nan nan nan nan nan nan nan nan nan nan nan nan nan nan nan nan 10 15 nan nan nan nan nan 10 9 15 15 11 13 11 12 19 19 21 23 24 20 12 10 16 19
nan nan nan nan nan nan nan nan nan nan nan nan nan nan nan nan nan nan 6 nan 13 14 nan nan nan nan nan nan 8 7 12 13 10 10 12 17 18 19 18 23 21 25 25 22 18
nan nan nan nan nan nan nan nan nan nan nan nan nan nan nan nan nan nan 7 2 11 12 nan nan nan 10 nan nan nan 16 nan 10 8 9 11 15 13 16 21 12 17 25 30 26 21
nan nan nan nan nan nan nan nan nan nan nan nan nan nan nan nan nan nan nan 8 nan nan nan nan nan 5 8 nan nan 13 6 4 3 8 7 7 10 9 17 12 16 25 29 31 25
nan nan nan nan nan nan nan nan nan nan nan nan nan nan nan nan nan nan nan nan nan nan nan nan nan 5 nan nan nan nan 6 4 5 8 6 4 5 8 8 13 19 28 29 27 28
nan nan nan nan nan nan nan nan nan nan nan nan nan nan nan nan nan nan nan nan nan nan nan nan nan nan nan nan nan 9 5 9 9 10 5 3 9 8 15 21 23 29 29 26 25
nan nan nan nan nan nan nan nan nan nan nan nan nan nan nan nan nan nan nan nan nan nan nan nan nan nan nan nan 5 7 9 9 9 3 8 5 5 11 19 24 24 28 33 30 27
nan nan nan nan nan nan nan nan nan nan nan nan nan nan nan nan nan nan nan nan nan nan nan nan nan nan nan nan 5 4 3 3 13 5 7 1 9 9 18 19 23 28 32 32 26
nan nan nan nan nan nan nan nan nan nan nan nan nan nan nan nan nan nan nan nan nan nan nan nan nan nan nan 4 4 10 3 5 nan nan nan 8 4 8 13 19 25 27 31 36 31
nan nan nan nan nan nan nan nan nan nan nan nan nan nan nan nan nan nan nan nan nan nan nan nan nan nan nan nan 25 7 7 2 nan nan nan nan 4 2 9 18 23 27 29 32 35
nan nan nan nan nan nan nan nan nan nan nan nan nan nan nan nan nan nan nan nan nan nan nan nan nan nan nan nan nan 6 1 6 nan nan nan nan nan 5 10 16 18 23 24 28 30
nan nan nan nan nan nan nan nan nan nan nan nan nan nan nan nan nan nan nan nan nan nan nan nan nan nan nan nan nan 4 2 10 nan nan nan nan nan 15 10 5 3 16 19 22 27
nan nan nan nan nan nan nan nan nan nan nan nan nan nan nan nan nan nan nan nan nan nan nan nan nan nan nan nan nan nan 14 nan 7 nan nan nan nan nan 22 15 16 4 14 18 23
nan nan nan nan nan nan nan nan nan nan nan nan nan nan nan nan nan nan nan nan nan nan nan nan nan nan nan nan nan nan nan 12 nan nan nan nan nan nan nan nan nan 11 10 11 19
nan nan nan nan nan nan nan nan nan nan nan nan nan nan nan nan nan nan nan nan nan nan nan nan nan nan nan nan nan nan nan nan nan nan nan nan nan nan nan nan nan 10 2 5 14
nan nan nan nan nan nan nan nan nan nan nan nan nan nan nan nan nan nan nan nan nan nan nan nan nan nan nan nan nan nan nan nan nan nan nan nan nan nan nan nan nan 12 10 9 15
nan nan nan nan nan nan nan nan nan nan nan nan nan nan nan nan nan nan nan nan nan nan nan nan nan nan nan nan nan nan nan nan nan nan nan nan nan nan nan nan 17 16 15 13 19
nan nan nan nan nan nan nan nan nan nan nan nan nan nan nan nan nan nan nan nan nan nan nan nan nan nan nan nan nan nan nan nan nan nan nan nan nan nan 14 27 21 21 19 24 24
nan nan nan nan nan nan nan nan nan nan nan nan nan nan nan nan nan nan nan nan nan nan nan nan nan nan nan nan nan nan nan nan nan nan nan nan nan nan nan 25 24 21 18 19 24
nan nan nan nan nan nan nan nan nan nan nan nan nan nan nan nan nan nan nan nan nan nan nan nan nan nan nan nan nan nan nan nan nan nan nan nan nan nan 20 18 19 18 15 19 19
nan nan nan nan nan nan nan nan nan nan nan nan nan nan nan nan nan nan nan nan nan nan nan nan nan nan nan nan nan nan nan nan nan nan nan nan nan 23 23 20 18 15 15 13 8
nan nan nan nan nan nan nan nan nan nan nan nan nan nan nan nan nan nan nan nan nan nan nan nan nan nan nan nan nan nan nan nan nan nan nan nan nan 20 24 24 17 15 11 15 11
nan nan nan nan nan nan nan nan nan nan nan nan nan nan nan 9 8 nan nan nan nan nan nan nan nan nan nan nan nan nan nan nan nan nan nan nan nan 22 19 18 19 21 20 17 15
nan nan nan nan nan nan nan nan nan nan nan nan nan nan nan 11 10 nan nan nan nan nan nan nan nan nan nan nan nan nan nan nan nan nan nan nan nan 12 18 22 26 25 28 26 23
nan nan nan nan nan nan nan nan nan nan nan nan nan nan nan 23 24 nan nan nan nan nan nan nan nan nan nan nan nan nan nan nan nan nan 10 8 18 12 12 19 26 28 30 29 27
nan nan nan nan nan nan nan nan nan nan nan nan nan nan nan 22 nan nan nan nan nan nan nan nan nan nan 14 nan nan 5 15 20 22 17 14 6 28 18 24 24 23 23 24 24 25
Wind_Direction
nan nan nan nan nan nan nan nan nan nan nan nan nan nan nan nan nan nan nan nan nan 347 57 342 72 71 66 88 96 96 73 77 82 69 37 40 49 53 49 23 54 74 37 338 350
nan nan nan nan nan nan nan nan nan nan nan nan nan nan nan nan nan nan nan nan 340 3 nan nan nan nan nan 95 74 95 117 96 90 68 31 33 57 47 45 33 35 14 341 338 353
nan nan nan nan nan nan nan nan nan nan nan nan nan nan nan nan nan nan 204 nan 6 24 nan nan nan nan nan nan 110 97 130 101 86 76 40 28 53 59 46 49 38 16 355 355 2
nan nan nan nan nan nan nan nan nan nan nan nan nan nan nan nan nan nan 240 318 358 22 nan nan nan 110 nan nan nan 97 nan 102 97 45 49 39 48 63 72 91 24 10 9 5 10
nan nan nan nan nan nan nan nan nan nan nan nan nan nan nan nan nan nan nan 326 nan nan nan nan nan 146 143 nan nan 111 155 149 63 28 35 42 52 90 64 65 14 2 9 17 19
nan nan nan nan nan nan nan nan nan nan nan nan nan nan nan nan nan nan nan nan nan nan nan nan nan 196 nan nan nan nan 136 245 337 330 349 24 6 50 23 20 9 8 7 17 22
nan nan nan nan nan nan nan nan nan nan nan nan nan nan nan nan nan nan nan nan nan nan nan nan nan nan nan nan nan 128 68 329 311 336 317 347 1 38 346 1 1 11 12 11 21
nan nan nan nan nan nan nan nan nan nan nan nan nan nan nan nan nan nan nan nan nan nan nan nan nan nan nan nan 136 107 84 8 316 296 276 40 234 317 352 356 7 11 14 15 14
nan nan nan nan nan nan nan nan nan nan nan nan nan nan nan nan nan nan nan nan nan nan nan nan nan nan nan nan 356 75 325 32 332 267 255 88 170 302 355 16 18 17 20 19 16
nan nan nan nan nan nan nan nan nan nan nan nan nan nan nan nan nan nan nan nan nan nan nan nan nan nan nan 204 63 282 278 358 nan nan nan 97 148 317 8 23 17 15 11 20 22
nan nan nan nan nan nan nan nan nan nan nan nan nan nan nan nan nan nan nan nan nan nan nan nan nan nan nan nan 212 198 184 243 nan nan nan nan 138 291 0 19 19 15 8 14 18
nan nan nan nan nan nan nan nan nan nan nan nan nan nan nan nan nan nan nan nan nan nan nan nan nan nan nan nan nan 275 133 341 nan nan nan nan nan 239 342 27 27 26 13 3 11
nan nan nan nan nan nan nan nan nan nan nan nan nan nan nan nan nan nan nan nan nan nan nan nan nan nan nan nan nan 271 96 254 nan nan nan nan nan 257 275 328 0 31 14 3 7
nan nan nan nan nan nan nan nan nan nan nan nan nan nan nan nan nan nan nan nan nan nan nan nan nan nan nan nan nan nan 300 nan 247 nan nan nan nan nan 284 294 330 354 25 11 358
nan nan nan nan nan nan nan nan nan nan nan nan nan nan nan nan nan nan nan nan nan nan nan nan nan nan nan nan nan nan nan 231 nan nan nan nan nan nan nan nan nan 307 335 6 357
nan nan nan nan nan nan nan nan nan nan nan nan nan nan nan nan nan nan nan nan nan nan nan nan nan nan nan nan nan nan nan nan nan nan nan nan nan nan nan nan nan 288 357 50 347
nan nan nan nan nan nan nan nan nan nan nan nan nan nan nan nan nan nan nan nan nan nan nan nan nan nan nan nan nan nan nan nan nan nan nan nan nan nan nan nan nan 203 245 309 333
nan nan nan nan nan nan nan nan nan nan nan nan nan nan nan nan nan nan nan nan nan nan nan nan nan nan nan nan nan nan nan nan nan nan nan nan nan nan nan nan 214 230 257 291 322
nan nan nan nan nan nan nan nan nan nan nan nan nan nan nan nan nan nan nan nan nan nan nan nan nan nan nan nan nan nan nan nan nan nan nan nan nan nan 214 222 230 239 270 287 310
nan nan nan nan nan nan nan nan nan nan nan nan nan nan nan nan nan nan nan nan nan nan nan nan nan nan nan nan nan nan nan nan nan nan nan nan nan nan nan 220 232 255 274 288 305
nan nan nan nan nan nan nan nan nan nan nan nan nan nan nan nan nan nan nan nan nan nan nan nan nan nan nan nan nan nan nan nan nan nan nan nan nan nan 211 222 237 249 268 294 316
nan nan nan nan nan nan nan nan nan nan nan nan nan nan nan nan nan nan nan nan nan nan nan nan nan nan nan nan nan nan nan nan nan nan nan nan nan 227 226 229 236 247 281 281 316
nan nan nan nan nan nan nan nan nan nan nan nan nan nan nan nan nan nan nan nan nan nan nan nan nan nan nan nan nan nan nan nan nan nan nan nan nan 227 240 248 251 243 263 279 315
nan nan nan nan nan nan nan nan nan nan nan nan nan nan nan 197 190 nan nan nan nan nan nan nan nan nan nan nan nan nan nan nan nan nan nan nan nan 241 238 242 252 249 258 262 278
nan nan nan nan nan nan nan nan nan nan nan nan nan nan nan 207 214 nan nan nan nan nan nan nan nan nan nan nan nan nan nan nan nan nan nan nan nan 251 243 244 245 252 256 250 258
nan nan nan nan nan nan nan nan nan nan nan nan nan nan nan 212 198 nan nan nan nan nan nan nan nan nan nan nan nan nan nan nan nan nan 284 286 287 269 262 260 257 257 257 256 249
nan nan nan nan nan nan nan nan nan nan nan nan nan nan nan 214 nan nan nan nan nan nan nan nan nan nan 266 nan nan 316 266 234 239 242 226 289 253 283 281 279 281 273 273 258 240